Back to catalog

WESTFORD NEEDLES

LostPO
NORAD 19946·DEBRIS·🇺🇸 United States

Launched May 9, 1963 from Vandenberg Space Force Base

Loading…

Next Passes (next 24 hours)

TLE

StaleSource: Space-Track

Epoch: May 31, 2026, 23:13 UTC

1 19946U 63014EU  26151.96780848  .00000312  00000-0  12990+0 0  9994
2 19946  87.1438 323.9550 0392059 303.6853 219.5791  8.68558928187161

Track WESTFORD NEEDLES in real time with AllMySat

Download on the App Store